Location: Unspecified
(44.4377°N, 88.0525°W)
Time: 07:10:33
(UTC-05:00)

CZ-3 Stage 3 - Visible Passes

Search period start: 23 August 2017 00:00
Search period end: 02 September 2017 00:00
Orbit: 429 x 34770 km, 31.0° (Epoch: 22 August)

Date Brightness Start Highest point End Pass type
(mag) Time Alt. Az. Time Alt. Az. Time Alt. Az.
23 Aug 6.5 11:54:38 10° WSW 12:08:51 59° S 20:04:36 10° S visible
25 Aug 8.1 15:25:09 10° W 16:13:02 46° SW 21:23:47 10° SW visible
26 Aug 6.4 11:45:30 10° WSW 11:59:35 59° S 19:51:53 10° S visible
28 Aug 8.1 15:16:05 10° W 16:03:19 45° SW 21:08:41 10° SW visible
29 Aug 6.4 11:36:22 10° WSW 11:50:19 58° S 19:39:02 10° S visible
31 Aug 8.1 15:07:00 10° W 15:53:37 44° SW 20:53:33 10° SW visible
01 Sep 6.4 11:27:11 10° WSW 11:41:02 58° S 19:25:59 10° S visible
